This demonstration page uses our WeatherBlox Daily Observations layout. Learn more.

Left ArrowRight Arrow

36.17497, -115.13722

Hourly Observations for April 14, 2021

Temp ( °F °C ) Dew Point ( °F °C ) Humidity (%) Winds ( mph kmh ) Pressure ( in mb ) Visibility ( mi km ) Precip ( " mm )
12:53 am 00:53 Clear 67 19.4 26 -3.3 21 21 SSE 13 20 29.52 1000 10 16.0934 N/A
1:53 am 01:53 Clear 65 18.3 26 -3.3 23 23 S 9 15 29.52 1000 10 16.0934 N/A
2:53 am 02:53 Clear 64 17.8 27 -2.8 25 25 S 16 26 29.53 1000 10 16.0934 N/A
3:53 am 03:53 Clear 62 16.7 27 -2.8 26 26 W 12 19 29.57 1001 10 16.0934 N/A
4:53 am 04:53 Clear 62 16.7 27 -2.8 26 26 W 9 15 29.59 1002 10 16.0934 N/A
5:53 am 05:53 Clear 62 16.7 27 -2.8 26 26 WSW 13 20 29.62 1003 10 16.0934 N/A
6:53 am 06:53 Sunny 61 16.1 27 -2.8 27 27 SSW 9 15 29.66 1004 10 16.0934 N/A
7:53 am 07:53 Sunny 64 17.8 27 -2.8 25 25 W 14 22 29.7 1006 10 16.0934 N/A
8:53 am 08:53 Sunny 66 18.9 27 -2.8 23 23 W 10 17 29.71 1006 10 16.0934 N/A
9:53 am 09:53 Sunny 68 20 25 -3.9 20 20 VRB 5 7 29.73 1007 10 16.0934 N/A
10:53 am 10:53 Sunny 69 20.6 25 -3.9 19 19 VRB 3 6 29.73 1007 10 16.0934 N/A
11:53 am 11:53 Sunny 72 22.2 24 -4.4 17 17 VRB 6 9 29.72 1007 10 16.0934 N/A
12:53 pm 12:53 Sunny 71 21.7 23 -5 16 16 VRB 6 9 29.7 1006 10 16.0934 N/A
1:53 pm 13:53 Sunny 74 23.3 23 -5 15 15 NNW 9 15 29.68 1005 10 16.0934 N/A
2:53 pm 14:53 Sunny 76 24.4 21 -6.1 13 13 N 13 20 29.65 1004 10 16.0934 N/A
3:53 pm 15:53 Sunny 77 25 17 -8.3 10 10 WSW 8 13 29.64 1004 10 16.0934 N/A
4:27 pm 16:27 Sunny 77 25 15 -9.4 9 9 NW 18 30 29.53 1000 10 16.0934 N/A
4:53 pm 16:53 Sunny 77 25 8 -13.3 7 7 SW 21 33 29.63 1003 10 16.0934 N/A
5:53 pm 17:53 Sunny 75 23.9 15 -9.4 10 10 W 7 11 29.64 1004 10 16.0934 N/A
6:53 pm 18:53 Sunny 74 23.3 17 -8.3 11 11 NNW 5 7 29.64 1004 10 16.0934 N/A
7:53 pm 19:53 Clear 73 22.8 17 -8.3 12 12 WNW 5 7 29.65 1004 10 16.0934 N/A
8:53 pm 20:53 Clear 71 21.7 16 -8.9 12 12 WSW 14 22 29.67 1005 10 16.0934 N/A
9:53 pm 21:53 Clear 68 20 19 -7.2 15 15 SW 13 20 29.69 1006 10 16.0934 N/A
10:53 pm 22:53 Clear 67 19.4 18 -7.8 15 15 WNW 15 24 29.71 1006 10 16.0934 N/A
11:53 pm 23:53 Clear 65 18.3 21 -6.1 19 19 NW 23 37 29.74 1007 10 16.0934 N/A

Powered by AerisWeather